sat.trackr.live / text

‹ back to catalog

YAOGAN-39 04C

NORAD 58145 · 2023-163E

PAYLOAD ACTIVE UNKNOWN

§ Identity

Operator
Country
PRC
Launch date
2023-10-23
Launch site
XICLF
Launch vehicle
Mass (kg)
RCS (m²)

External: N2YO · Heavens-Above · Gunter

§ Orbital elements

Epoch: 2026-09-21T22:32:19.798656Z

Period
94.94 min
Inclination
34.9899°
Eccentricity
0.0002065
Mean motion
15.16693808 rev/d
Perigee alt
514.4 km
Apogee alt
517.3 km
Semi-major
6,894.0 km
B*
1.4573e-4
RAAN
125.7897°
Arg perigee
300.1742°
Mean anomaly
59.8766°
Rev number
16,202

§ Raw data

YAOGAN-39 04C1 58145U 23163E   26264.93911804  .00002887  00000+0  14573-3 0  99902 58145  34.9899 125.7897 0002065 300.1742  59.8766 15.16693808162025

JSON: /api/v1/satellites/58145 · /tle

For live sub-satellite position, see the globe view (requires WebGL).

§ Visibility from observer

Set your observer location to see the next 7 days of passes ≥ 10°. The values pass through the URL so the page stays shareable.

No JS? Fill the form by hand. The geolocation button needs JavaScript.